Date,TemperatureHighF,TemperatureAvgF,TemperatureLowF,DewpointHighF,DewpointAvgF,DewpointLowF,HumidityHigh,HumidityAvg,HumidityLow,PressureMaxIn,PressureMinIn,WindSpeedMaxMPH,WindSpeedAvgMPH,GustSpeedMaxMPH,PrecipitationSumIn
2013-2-1,57,53,49,-100,-100,-100,0,0,100,30.42,30.33,23,15,26,0.00
2013-2-2,60,54,46,-100,-100,-100,0,0,100,30.38,30.21,19,-2,21,0.00
2013-2-3,61,57,53,-100,-100,-100,0,0,100,30.29,30.14,16,8,20,0.00
2013-2-4,61,57,53,-100,-100,-100,0,0,100,30.15,30.01,15,9,17,0.00
2013-2-5,64,60,56,-100,-100,-100,0,0,100,30.06,29.97,20,11,26,0.00
2013-2-6,64,59,54,-100,-100,-100,0,0,100,30.17,30.04,20,9,22,0.00
2013-2-7,70,63,59,-100,-100,-100,0,0,100,30.04,29.80,36,13,53,0.00
2013-2-8,65,61,56,-100,-100,-100,0,0,100,30.17,29.97,27,-34,32,0.00
2013-2-9,63,57,50,-100,-100,-100,0,0,100,30.27,30.13,23,16,28,0.00
2013-2-10,68,65,63,-100,-100,-100,0,0,100,30.14,29.98,26,17,29,0.00
2013-2-11,67,63,58,-100,-100,-100,0,0,100,30.12,30.03,28,12,36,0.00
2013-2-12,69,63,58,-100,-100,-100,0,0,100,30.07,29.80,26,15,30,0.00
2013-2-13,66,56,49,-100,-100,-100,0,0,100,30.09,29.81,23,14,27,0.00
2013-2-14,56,50,46,-100,-100,-100,0,0,100,30.20,30.06,19,11,23,0.00
2013-2-15,59,55,52,-100,-100,-100,0,0,100,30.19,30.08,22,8,27,0.00
2013-2-16,54,50,45,-100,-100,-100,0,0,100,30.32,30.11,31,22,38,0.00
2013-2-17,54,46,40,-100,-100,-100,0,0,100,30.42,30.31,19,10,21,0.00
2013-2-18,63,58,54,-100,-100,-100,0,0,100,30.32,30.05,32,21,38,0.00
2013-2-19,65,60,54,-100,-100,-100,0,0,100,30.23,30.01,30,14,34,0.00
2013-2-20,54,50,45,-100,-100,-100,0,0,100,30.29,30.10,31,-57,35,0.00
2013-2-21,64,59,52,-100,-100,-100,0,0,100,30.09,29.90,24,17,28,0.00
2013-2-22,65,61,58,-100,-100,-100,0,0,100,30.00,29.88,18,-20,23,0.00
2013-2-23,67,58,55,-100,-100,-100,0,0,100,29.98,29.80,22,-2,26,0.00
2013-2-24,61,57,52,-100,-100,-100,0,0,100,30.01,29.82,27,12,30,0.00
2013-2-25,67,62,59,-100,-100,-100,0,0,100,29.85,29.55,31,21,38,0.00
2013-2-26,65,57,52,-100,-100,-100,0,0,100,29.95,29.57,21,14,31,0.00
2013-2-27,60,57,52,-100,-100,-100,0,0,100,30.06,29.94,14,-5,20,0.00
2013-2-28,60,53,49,-100,-100,-100,0,0,100,30.12,30.00,22,16,24,0.00